Snowfall_Accumulation
0.0 0.0 0.0 0.0 0.0 0.0 0.0 0.0 0.0 0.0 0.0 0.0 0.0 0.0 0.0 0.0 0.0 0.0 0.0 0.0 0.0 0.0 0.0 0.0 0.0 0.0 0.0 0.0 0.0 0.0 0.0 0.0 0.4 0.2 0.1 0.1 0.1 0.1 0.1 0.1 0.1 0.1 0.1
0.0 0.0 0.0 0.0 0.0 0.0 0.0 0.0 0.0 0.0 0.0 0.0 0.0 0.0 0.0 0.0 0.0 0.0 0.0 0.0 0.0 0.0 0.0 0.0 0.0 0.0 0.1 0.0 0.0 0.0 0.1 0.1 0.2 0.2 0.2 0.3 0.3 0.2 0.3 0.4 0.3 0.2 0.2
0.0 0.0 0.0 0.0 0.0 0.0 0.0 0.0 0.0 0.0 0.0 0.0 0.0 0.0 0.0 0.0 0.0 0.0 0.0 0.0 0.0 0.0 0.0 0.0 0.0 0.1 0.1 0.2 0.1 0.2 0.2 0.1 0.1 0.5 0.7 0.5 0.5 0.4 0.5 0.5 0.6 0.7 0.6
0.0 0.0 0.0 0.0 0.0 0.0 0.0 0.0 0.0 0.0 0.0 0.0 0.0 0.0 0.0 0.0 0.0 0.0 0.0 0.0 0.0 0.0 0.0 0.0 0.0 0.0 0.1 0.1 0.2 0.2 0.2 0.6 0.6 0.6 1.2 0.9 0.8 0.8 0.8 1.0 1.5 1.2 1.2
0.0 0.0 0.0 0.0 0.0 0.0 0.1 0.1 0.1 0.1 0.0 0.0 0.0 0.1 0.0 0.0 0.0 0.0 0.0 0.1 0.1 0.1 0.1 0.1 0.0 0.0 nan nan 0.5 0.5 0.5 0.9 1.9 2.6 1.5 1.1 0.9 1.1 1.3 1.4 2.3 1.6 1.2
0.0 0.0 0.0 0.1 0.2 0.2 0.2 0.2 0.2 0.2 0.2 0.2 0.2 0.2 0.2 0.0 nan nan 0.1 0.1 0.2 0.1 0.2 0.1 0.2 0.4 0.3 nan nan nan nan 1.3 8.4 7.1 1.6 1.8 1.8 2.4 2.8 2.4 2.2 2.7 2.8
0.2 0.6 0.5 0.4 0.5 0.3 0.3 0.3 0.3 0.3 0.2 0.3 0.3 0.3 0.5 0.3 nan nan nan 0.4 0.4 0.2 0.3 0.4 0.7 0.6 0.5 0.4 nan nan nan nan nan 1.2 2.7 3.0 4.6 3.5 3.0 2.7 2.1 2.5 1.8
0.5 0.9 0.7 0.5 1.2 0.6 0.5 0.5 0.4 0.3 0.4 0.4 0.6 0.6 0.6 0.7 nan nan nan 0.5 0.6 0.5 0.5 0.7 0.9 1.2 1.0 0.8 1.0 2.0 1.8 2.0 2.0 2.4 2.8 3.5 2.9 2.0 1.8 2.1 2.9 3.2 2.6
0.2 0.4 0.4 0.8 1.7 0.8 2.4 0.9 0.6 1.2 1.0 1.9 1.8 3.4 3.1 2.8 nan nan 1.1 1.8 1.9 1.6 1.1 1.2 1.3 1.3 nan nan 3.7 6.6 6.0 4.7 nan nan nan nan nan nan nan 6.9 15.8 17.6 9.2
0.3 0.3 0.4 0.9 3.0 2.4 1.0 1.9 1.9 2.1 2.3 3.6 3.7 3.6 1.4 5.1 nan nan nan 5.7 6.6 4.4 2.8 1.9 1.2 2.0 nan nan 4.2 7.3 9.5 4.6 4.3 6.4 3.6 2.1 nan nan nan 1.7 5.4 16.7 9.3
0.8 0.9 1.1 1.1 3.4 1.7 2.2 1.7 3.1 4.5 3.3 5.4 5.3 4.6 4.9 2.9 3.0 nan nan 4.1 6.1 8.3 7.8 5.9 4.0 nan nan nan nan 7.1 6.5 4.8 9.4 8.3 6.8 5.9 3.8 2.8 2.7 2.3 1.4 2.9 7.6
1.8 2.1 2.8 4.4 3.5 3.4 7.6 4.7 7.2 6.8 7.2 6.9 7.4 6.7 5.7 3.4 nan nan nan nan nan 11.2 7.3 4.5 4.5 nan nan nan 3.1 nan nan 3.4 11.8 13.5 11.1 8.0 4.8 4.0 2.3 2.1 1.1 1.4 1.3
5.1 7.2 7.3 6.3 6.3 6.4 8.9 7.2 8.6 8.4 9.6 6.3 7.9 7.4 5.5 5.1 5.2 nan nan nan nan 6.9 4.9 4.3 nan nan nan nan nan nan 1.3 7.7 10.7 12.8 8.0 4.1 2.2 1.9 1.4 2.3 1.3 1.5 1.0
9.3 5.4 4.4 5.8 4.4 5.7 6.6 7.5 10.5 9.4 8.5 9.4 10.3 9.5 6.5 6.7 6.0 5.4 7.8 5.1 3.1 6.9 nan 5.3 nan 3.9 nan nan 3.6 3.2 5.1 6.1 6.6 7.4 5.5 2.6 2.3 3.6 5.3 3.8 5.8 5.1 9.0
6.7 3.9 4.7 6.3 7.0 4.5 3.9 5.9 5.3 3.4 7.0 13.0 15.1 11.4 14.2 14.4 10.7 5.4 11.1 13.4 11.3 11.4 9.2 15.1 12.8 8.3 7.5 6.2 7.7 6.9 6.0 7.3 8.5 7.9 8.2 7.3 6.5 6.5 5.8 4.7 5.5 8.0 10.4
4.2 5.7 5.1 5.0 4.6 4.3 5.0 5.1 nan nan nan nan nan 9.4 13.1 nan nan nan nan nan nan nan 20.8 23.5 12.5 9.4 6.9 6.8 8.6 8.4 7.6 6.3 7.2 8.3 8.9 8.0 8.4 7.0 7.6 8.5 7.9 9.5 10.5
6.9 5.2 6.5 5.2 6.1 6.9 7.3 8.4 9.4 6.5 nan nan nan nan nan nan nan nan nan nan nan nan 31.1 18.2 14.7 10.1 9.7 7.9 9.6 9.0 9.1 7.2 5.5 9.1 8.7 9.6 10.3 11.2 11.6 11.2 9.3 8.8 12.7
7.9 2.4 8.3 8.1 7.8 8.0 8.5 8.9 8.8 10.3 11.7 9.7 nan nan nan nan nan nan nan nan 25.7 nan 23.9 24.4 21.0 16.7 13.1 12.1 10.3 10.5 10.5 10.0 9.6 10.6 11.0 14.7 16.1 18.0 16.6 15.9 12.3 14.5 13.4
8.3 7.2 7.8 8.0 7.7 7.9 8.5 7.8 8.5 8.5 8.9 11.1 10.6 10.5 5.9 nan nan nan nan 18.1 25.5 22.5 22.3 23.2 19.7 18.8 15.9 16.8 15.9 17.7 15.1 15.6 15.2 19.8 19.8 21.2 19.1 19.7 19.1 13.5 10.7 6.6 7.7
9.1 3.7 6.7 11.2 9.7 8.8 6.6 8.6 7.9 8.2 9.0 10.5 10.9 9.4 15.5 15.4 22.0 22.9 18.8 25.5 25.8 23.3 20.7 22.8 23.6 26.1 26.3 24.0 23.4 21.7 22.0 22.7 20.7 22.1 22.1 20.5 18.8 19.5 13.8 18.2 15.5 13.5 14.4
13.9 12.2 2.7 10.9 13.3 13.3 13.4 11.0 8.7 11.8 10.6 12.5 9.8 9.0 nan 16.1 16.4 18.5 21.7 20.2 24.1 26.0 21.2 23.4 25.2 31.6 32.1 34.6 29.5 28.5 26.8 17.6 21.4 23.7 25.2 24.7 23.5 28.1 17.2 11.1 15.6 16.8 16.4
15.7 16.1 16.1 17.0 12.1 12.7 14.4 10.1 11.2 11.2 10.6 9.1 7.2 7.8 nan 9.6 12.4 13.1 15.2 20.5 24.6 24.5 27.8 32.5 32.2 34.9 31.5 29.3 26.8 24.7 21.0 24.7 26.5 25.3 21.0 22.0 25.5 22.1 20.8 14.3 14.8 12.8 16.6
13.5 12.1 13.0 13.0 12.6 6.4 14.3 16.3 14.2 13.4 11.9 12.8 10.7 10.4 12.8 16.9 14.2 13.6 20.8 23.9 19.3 18.5 21.3 22.4 21.1 21.2 19.7 22.9 20.4 19.7 21.4 24.3 25.2 31.9 23.4 24.1 23.4 26.3 22.9 20.1 17.4 18.9 17.3
12.6 13.1 12.8 16.9 15.0 12.6 14.8 15.9 13.7 6.1 13.5 14.1 23.3 18.1 10.2 13.8 21.3 16.2 17.5 20.8 17.1 28.5 20.6 21.9 18.1 17.8 19.7 29.0 35.8 35.3 37.8 39.3 38.4 35.6 32.0 23.1 23.2 18.9 19.5 21.3 16.8 15.1 13.3
17.1 14.6 14.7 13.6 20.0 16.2 15.3 18.1 12.7 17.1 19.9 15.3 18.3 13.1 14.2 13.8 15.6 21.8 20.4 16.5 18.6 17.1 14.8 14.9 15.3 15.8 16.1 16.9 23.6 29.8 29.4 4.3 19.7 4.7 28.4 20.5 24.8 25.7 24.5 20.1 18.5 15.6 12.9
14.4 15.0 15.6 16.1 15.6 16.8 17.3 16.7 16.9 13.1 16.3 17.2 16.2 16.6 14.4 14.6 14.6 17.6 16.4 16.5 13.4 14.1 14.5 15.7 15.4 13.4 12.7 14.7 15.8 6.7 4.0 3.5 23.9 4.0 23.2 19.7 23.1 22.3 21.9 22.0 20.3 18.4 14.8
Water_Equivalent
0.00 0.00 0.00 0.00 0.00 0.00 0.00 0.00 0.00 0.00 0.00 0.00 0.00 0.00 0.00 0.00 0.00 0.00 0.00 0.00 0.00 0.01 0.00 0.00 0.00 0.00 0.00 0.00 0.00 0.00 0.00 0.01 0.13 0.06 0.03 0.02 0.02 0.03 0.03 0.02 0.02 0.02 0.01
0.00 0.00 0.00 0.00 0.00 0.00 0.00 0.00 0.00 0.00 0.00 0.00 0.00 0.00 0.00 0.00 0.00 0.00 0.00 0.01 0.01 0.00 0.00 0.00 0.00 0.00 0.02 0.00 0.00 0.01 0.03 0.03 0.06 0.05 0.04 0.05 0.05 0.05 0.06 0.07 0.06 0.03 0.05
0.00 0.00 0.00 0.00 0.00 0.00 0.00 0.00 0.00 0.00 0.00 0.00 0.00 0.00 0.00 0.00 0.00 0.00 0.00 0.00 0.00 0.00 0.00 0.00 0.00 0.02 0.03 0.06 0.02 0.06 0.06 0.03 0.04 0.10 0.12 0.09 0.10 0.08 0.08 0.09 0.12 0.11 0.11
0.00 0.00 0.00 0.00 0.00 0.00 0.00 0.00 0.00 0.00 0.00 0.00 0.00 0.00 0.00 0.00 0.00 0.00 0.00 0.00 0.00 0.00 0.00 0.01 0.01 0.01 0.03 0.04 0.05 0.05 0.06 0.13 0.14 0.14 0.20 0.14 0.12 0.12 0.13 0.15 0.21 0.17 0.16
0.00 0.00 0.00 0.00 0.00 0.00 0.02 0.03 0.03 0.03 0.00 0.00 0.00 0.01 0.00 0.00 0.00 0.01 0.01 0.03 0.02 0.02 0.03 0.03 0.02 0.01 nan nan 0.12 0.10 0.09 0.18 0.35 0.42 0.21 0.15 0.13 0.15 0.19 0.20 0.33 0.22 0.15
0.00 0.00 0.00 0.03 0.05 0.05 0.05 0.05 0.04 0.04 0.04 0.04 0.04 0.04 0.04 0.00 nan nan 0.02 0.04 0.05 0.03 0.04 0.04 0.06 0.10 0.07 nan nan nan nan 0.24 1.01 0.99 0.23 0.24 0.26 0.35 0.39 0.31 0.29 0.34 0.34
0.05 0.10 0.10 0.07 0.09 0.07 0.05 0.05 0.04 0.04 0.04 0.04 0.05 0.05 0.06 0.06 nan nan nan 0.09 0.08 0.05 0.06 0.08 0.13 0.11 0.12 0.08 nan nan nan nan nan 0.21 0.36 0.42 0.58 0.47 0.40 0.34 0.27 0.35 0.27
0.08 0.15 0.12 0.07 0.17 0.08 0.07 0.07 0.05 0.04 0.06 0.06 0.08 0.09 0.09 0.11 nan nan nan 0.09 0.11 0.10 0.10 0.11 0.15 0.17 0.14 0.12 0.17 0.31 0.29 0.35 0.36 0.42 0.44 0.51 0.42 0.28 0.26 0.29 0.38 0.44 0.37
0.04 0.06 0.07 0.12 0.21 0.10 0.29 0.11 0.07 0.15 0.12 0.22 0.22 0.41 0.39 0.39 nan nan 0.20 0.28 0.25 0.23 0.16 0.18 0.19 0.19 nan nan 0.47 0.76 0.75 0.65 nan nan nan nan nan nan nan 1.01 2.13 2.36 1.21
0.04 0.04 0.05 0.12 0.36 0.28 0.12 0.23 0.25 0.26 0.26 0.41 0.40 0.44 0.28 0.64 nan nan nan 0.79 0.82 0.56 0.37 0.27 0.34 0.29 nan nan 0.57 0.86 1.07 0.56 0.56 0.81 0.53 0.35 nan nan nan 0.23 0.78 2.13 1.23
0.11 0.11 0.14 0.14 0.40 0.21 0.27 0.22 0.38 0.52 0.36 0.59 0.60 0.53 0.58 0.44 0.40 nan nan 0.56 0.81 1.05 1.01 0.75 0.54 nan nan nan nan 0.87 0.76 0.59 1.17 0.98 0.84 0.75 0.52 0.38 0.39 0.32 0.19 0.45 1.01
0.22 0.23 0.29 0.50 0.43 0.42 0.87 0.55 0.79 0.74 0.77 0.73 0.80 0.73 0.67 0.40 nan nan nan nan nan 1.52 0.91 0.59 0.60 nan nan nan 0.67 nan nan 0.73 1.51 1.58 1.31 0.94 0.58 0.48 0.30 0.28 0.13 0.19 0.18
0.53 0.76 0.77 0.71 0.75 0.76 1.10 0.77 1.03 0.91 1.04 0.68 0.86 0.81 0.60 0.59 0.64 nan nan nan nan 0.98 0.70 0.57 nan nan nan nan nan nan 0.44 1.03 1.23 1.41 0.87 0.47 0.26 0.22 0.16 0.28 0.15 0.19 0.13
1.03 0.55 0.45 0.60 0.53 0.65 0.85 0.96 1.36 1.09 0.91 1.00 1.11 1.02 0.70 0.70 0.68 0.69 1.03 0.84 0.68 0.99 nan 0.77 nan 0.51 nan nan 0.53 0.46 0.68 0.72 0.73 0.79 0.64 0.30 0.27 0.42 0.62 0.46 0.69 0.61 1.12
0.68 0.36 0.51 0.74 0.83 0.50 0.44 0.75 0.65 0.43 0.93 1.62 1.95 1.42 1.57 1.53 1.20 0.66 1.36 1.61 1.56 1.53 1.37 1.77 1.42 0.89 0.80 0.67 0.86 0.76 0.66 0.80 0.91 0.87 0.89 0.81 0.74 0.76 0.69 0.54 0.64 0.93 1.20
0.41 0.60 0.57 0.58 0.51 0.48 0.51 0.53 nan nan nan nan nan 1.26 1.68 nan nan nan nan nan nan nan 2.70 2.69 1.28 0.96 0.68 0.67 0.85 0.81 0.75 0.69 0.73 0.86 0.94 0.87 0.93 0.77 0.84 0.98 0.93 1.09 1.15
0.78 0.53 0.66 0.56 0.61 0.70 0.76 0.87 0.96 0.74 nan nan nan nan nan nan nan nan nan nan nan nan 3.85 1.98 1.52 1.00 0.93 0.71 0.88 0.80 0.80 0.66 0.48 0.87 0.85 0.98 1.08 1.20 1.29 1.23 1.03 0.96 1.43
0.83 0.79 0.86 0.81 0.79 0.80 0.86 0.89 0.89 1.05 1.19 0.98 nan nan nan nan nan nan nan nan 3.10 nan 2.77 2.75 2.27 1.74 1.26 1.11 0.90 0.90 0.91 0.87 0.85 0.98 1.03 1.52 1.72 1.97 1.83 1.81 1.39 1.69 1.56
0.84 0.73 0.79 0.81 0.79 0.81 0.87 0.76 0.84 0.83 0.86 1.11 1.07 1.08 0.98 nan nan nan nan 2.06 2.96 2.50 2.44 2.55 2.05 1.88 1.50 1.63 1.53 1.75 1.42 1.48 1.43 1.99 2.03 2.26 2.08 2.20 2.17 1.54 1.20 0.97 1.08
0.90 0.89 0.86 1.13 0.94 0.84 0.62 0.80 0.72 0.76 0.83 1.01 1.06 0.92 1.64 1.83 2.50 2.61 2.10 3.00 2.99 2.59 2.24 2.47 2.51 2.82 2.86 2.58 2.50 2.29 2.29 2.37 2.11 2.27 2.27 2.16 2.04 2.21 1.44 2.13 1.82 1.48 1.72
1.34 1.13 0.88 1.00 1.28 1.30 1.31 1.02 0.78 1.11 0.99 1.22 0.94 0.88 nan 1.65 1.73 2.00 2.40 2.17 2.66 2.91 2.28 2.56 2.71 3.58 3.71 4.11 3.33 3.17 2.91 1.73 2.23 2.50 2.71 2.66 2.56 3.24 1.92 1.15 1.81 2.01 1.95
1.45 1.53 1.53 1.62 1.07 1.13 1.35 0.88 1.00 1.00 0.94 0.80 0.61 0.72 nan 0.92 1.22 1.30 1.53 2.18 2.70 2.66 3.07 3.68 3.61 4.02 3.53 3.24 2.87 2.65 2.15 2.66 2.94 2.70 2.10 2.24 2.73 2.35 2.34 1.54 1.65 1.42 2.00
1.18 0.99 1.10 1.10 1.07 1.41 1.26 1.51 1.28 1.21 1.05 1.19 1.01 0.96 1.19 1.70 1.40 1.32 2.20 2.51 1.92 1.79 2.13 2.27 2.12 2.11 1.97 2.36 2.06 1.99 2.15 2.51 2.62 3.60 2.31 2.45 2.35 2.81 2.52 2.21 1.94 2.16 2.05
1.05 1.11 1.09 1.55 1.33 1.06 1.31 1.42 1.17 1.48 1.21 1.31 2.35 1.82 0.94 1.33 2.13 1.48 1.62 2.02 1.61 3.04 2.05 2.22 1.74 1.71 1.98 3.21 4.22 4.15 4.53 4.78 4.51 4.08 3.58 2.26 2.25 1.99 1.92 2.32 1.81 1.75 1.41
1.45 1.20 1.22 1.12 1.86 1.41 1.31 1.64 1.06 1.56 1.89 1.41 1.82 1.21 1.27 1.19 1.39 2.19 2.01 1.58 1.83 1.68 1.42 1.41 1.49 1.55 1.60 1.70 2.52 3.36 3.60 1.42 2.58 1.55 3.06 1.99 2.48 2.55 2.41 2.03 1.90 1.56 1.35
1.16 1.23 1.28 1.34 1.30 1.45 1.54 1.49 1.54 1.15 1.54 1.66 1.53 1.56 1.31 1.33 1.35 1.73 1.58 1.60 1.26 1.33 1.41 1.56 1.54 1.33 1.24 1.45 1.57 1.64 1.32 1.16 2.73 1.32 2.41 1.89 2.23 2.03 1.98 2.02 1.85 1.76 1.41
SL_Ratio
nan nan nan nan nan nan nan nan nan nan nan nan nan nan nan nan nan nan nan nan 3.6 4.1 nan nan nan nan nan nan nan nan nan 2.6 3.5 3.1 2.7 2.8 3.2 3.5 3.9 3.9 4.3 4.6 5.1
nan nan nan nan nan nan nan nan nan nan nan nan nan nan nan nan nan nan 5.0 3.7 3.9 3.3 nan nan nan 0.0 4.0 4.4 nan 3.2 2.5 2.5 3.3 4.2 4.1 5.4 5.4 4.3 4.2 4.9 5.1 5.2 5.1
nan nan nan nan nan nan nan nan nan nan nan nan nan nan nan nan nan nan nan nan nan nan nan nan nan 4.1 3.7 3.6 3.1 2.9 2.8 2.8 3.4 4.6 5.6 5.8 5.8 5.5 5.8 5.3 5.6 5.9 5.7
nan nan nan nan nan nan nan nan nan nan nan nan nan nan nan nan nan nan nan nan nan 2.3 2.7 3.8 3.6 3.4 4.1 4.0 4.1 3.8 4.1 4.4 4.4 4.5 5.8 6.5 6.6 6.7 5.9 6.4 7.5 7.3 7.2
nan nan nan nan nan 3.6 3.6 3.6 3.8 3.9 nan nan nan 4.5 nan nan nan 2.9 3.3 3.9 3.8 3.6 3.8 3.6 2.6 3.2 nan nan 4.4 4.7 4.8 4.9 5.5 6.2 7.1 7.2 7.0 7.2 7.1 6.9 6.9 7.4 7.6
0.0 5.0 5.0 4.3 4.5 4.4 4.3 4.3 4.4 4.7 4.7 5.7 5.8 5.8 5.9 5.0 nan nan 3.6 3.9 4.0 3.7 3.9 3.4 3.8 3.8 4.1 nan nan nan nan 5.6 8.3 7.2 6.7 7.4 7.0 7.0 7.1 7.7 7.7 8.0 8.3
4.7 5.4 5.7 5.3 6.1 5.2 5.1 5.9 6.5 6.2 6.1 6.7 6.4 6.1 7.0 5.6 nan nan nan 4.3 4.6 4.2 4.3 4.5 5.2 5.4 3.9 4.9 nan nan nan nan nan 5.9 7.5 7.3 7.9 7.5 7.4 8.1 7.8 7.1 6.8
6.0 5.9 6.4 6.2 7.4 7.7 7.7 7.5 6.9 6.7 7.1 6.9 7.2 7.2 7.1 6.7 nan nan nan 5.2 5.6 5.1 4.8 5.9 6.2 7.0 7.2 6.7 5.5 6.4 6.2 5.8 5.4 5.7 6.2 6.8 7.0 7.0 7.1 7.3 7.8 7.3 6.9
6.2 6.5 6.3 7.2 7.8 8.0 8.3 8.2 7.9 8.0 8.0 8.4 8.1 8.4 8.0 7.3 nan nan 5.3 6.5 7.4 7.2 6.9 6.8 6.8 7.1 nan nan 7.8 8.7 8.0 7.2 nan nan nan nan nan nan nan 6.9 7.4 7.5 7.6
6.9 6.8 7.2 7.8 8.2 8.4 8.1 8.2 7.8 7.9 8.8 8.7 9.1 8.3 5.0 8.0 nan nan nan 7.3 8.1 7.7 7.7 7.1 3.4 6.9 nan nan 7.4 8.5 8.9 8.2 7.7 7.9 6.9 6.1 nan nan nan 7.3 6.9 7.9 7.5
7.4 8.1 8.4 8.2 8.4 8.2 8.0 7.8 8.0 8.6 9.2 9.1 8.9 8.6 8.5 6.6 7.5 nan nan 7.3 7.6 7.9 7.7 7.8 7.3 nan nan nan nan 8.2 8.6 8.0 8.1 8.4 8.1 7.9 7.4 7.3 6.8 7.1 7.4 6.5 7.5
8.2 9.0 9.4 8.9 8.2 8.1 8.8 8.5 9.1 9.3 9.3 9.4 9.3 9.2 8.6 8.5 nan nan nan nan nan 7.3 8.0 7.6 7.5 nan nan nan 4.6 nan nan 4.6 7.8 8.5 8.5 8.5 8.3 8.3 7.7 7.5 8.3 7.4 6.9
9.7 9.5 9.4 8.9 8.4 8.4 8.1 9.4 8.3 9.2 9.2 9.3 9.2 9.2 9.1 8.7 8.1 nan nan nan nan 7.0 7.0 7.5 nan nan nan nan nan nan 3.0 7.5 8.7 9.1 9.2 8.7 8.6 8.4 8.7 8.2 8.5 7.8 8.0
9.0 9.7 9.8 9.5 8.3 8.7 7.7 7.8 7.8 8.6 9.3 9.4 9.3 9.2 9.3 9.5 8.7 7.8 7.6 6.1 4.6 7.0 nan 6.9 nan 7.6 nan nan 6.7 7.1 7.5 8.4 9.0 9.4 8.7 8.6 8.5 8.7 8.6 8.3 8.4 8.4 8.0
9.9 10.7 9.3 8.6 8.4 9.2 8.9 7.9 8.1 8.1 7.6 8.0 7.8 8.0 9.1 9.5 9.0 8.1 8.2 8.3 7.2 7.5 6.7 8.5 9.0 9.3 9.4 9.2 9.0 9.0 9.1 9.2 9.4 9.0 9.2 9.0 8.8 8.5 8.5 8.6 8.5 8.6 8.7
10.3 9.5 8.8 8.7 8.9 9.1 9.7 9.6 nan nan nan nan nan 7.5 7.8 nan nan nan nan nan nan nan 7.7 8.7 9.7 9.8 10.2 10.1 10.1 10.3 10.2 9.2 9.8 9.6 9.5 9.1 9.1 9.1 9.0 8.7 8.5 8.7 9.2
8.8 9.9 9.9 9.3 10.0 9.7 9.6 9.6 9.7 8.9 nan nan nan nan nan nan nan nan nan nan nan nan 8.1 9.2 9.6 10.1 10.5 11.1 10.9 11.2 11.4 11.0 11.5 10.5 10.3 9.7 9.5 9.4 9.0 9.1 9.1 9.1 8.8
9.6 3.0 9.7 9.9 10.0 10.0 9.9 9.9 9.9 9.8 9.8 9.9 nan nan nan nan nan nan nan nan 8.3 nan 8.6 8.9 9.3 9.6 10.4 11.0 11.4 11.7 11.6 11.5 11.4 10.8 10.6 9.7 9.3 9.2 9.1 8.8 8.8 8.6 8.6
9.8 9.9 9.8 9.8 9.8 9.7 9.8 10.2 10.1 10.3 10.3 10.0 10.0 9.8 6.1 nan nan nan nan 8.8 8.6 9.0 9.1 9.1 9.6 10.0 10.6 10.3 10.4 10.1 10.6 10.6 10.6 9.9 9.8 9.4 9.2 9.0 8.8 8.8 9.0 6.8 7.2
10.1 4.1 7.8 9.9 10.3 10.4 10.7 10.7 11.0 10.9 10.9 10.4 10.2 10.2 9.4 8.4 8.8 8.8 9.0 8.5 8.6 9.0 9.2 9.2 9.4 9.3 9.2 9.3 9.4 9.5 9.6 9.6 9.8 9.7 9.7 9.5 9.2 8.8 9.6 8.6 8.5 9.1 8.4
10.4 10.8 3.0 10.9 10.4 10.3 10.2 10.8 11.3 10.6 10.7 10.3 10.5 10.1 nan 9.7 9.5 9.3 9.0 9.3 9.1 8.9 9.3 9.1 9.3 8.8 8.7 8.4 8.9 9.0 9.2 10.1 9.6 9.5 9.3 9.3 9.2 8.7 9.0 9.7 8.6 8.4 8.4
10.8 10.6 10.5 10.5 11.3 11.3 10.7 11.5 11.3 11.2 11.3 11.5 11.8 10.9 nan 10.5 10.2 10.0 10.0 9.4 9.1 9.2 9.1 8.8 8.9 8.7 8.9 9.1 9.3 9.3 9.7 9.3 9.0 9.3 10.0 9.8 9.4 9.4 8.9 9.2 9.0 9.1 8.3
11.5 12.2 11.8 11.8 11.8 4.5 11.4 10.8 11.1 11.1 11.3 10.7 10.6 10.8 10.7 9.9 10.2 10.3 9.5 9.5 10.1 10.3 10.0 9.9 9.9 10.0 10.0 9.7 9.9 9.9 10.0 9.7 9.6 8.9 10.1 9.9 10.0 9.4 9.1 9.1 9.0 8.8 8.5
12.0 11.8 11.8 10.9 11.3 11.9 11.3 11.2 11.7 4.1 11.2 10.8 9.9 10.0 10.8 10.4 10.0 11.0 10.8 10.3 10.6 9.4 10.1 9.9 10.4 10.4 10.0 9.0 8.5 8.5 8.3 8.2 8.5 8.7 9.0 10.2 10.3 9.5 10.2 9.2 9.3 8.6 9.4
11.8 12.2 12.0 12.1 10.8 11.5 11.7 11.1 12.0 10.9 10.5 10.8 10.0 10.8 11.2 11.6 11.2 10.0 10.1 10.5 10.2 10.2 10.5 10.5 10.3 10.2 10.1 9.9 9.3 8.9 8.2 3.0 7.6 3.0 9.3 10.3 10.0 10.1 10.2 9.9 9.7 10.0 9.6
12.4 12.3 12.2 12.0 12.1 11.6 11.2 11.2 10.9 11.4 10.6 10.4 10.6 10.6 11.0 11.0 10.8 10.2 10.3 10.3 10.7 10.6 10.3 10.1 10.0 10.1 10.2 10.1 10.0 4.1 3.0 3.0 8.7 3.0 9.6 10.4 10.3 11.0 11.0 10.9 11.0 10.5 10.5